Regional Weather Roundup
Issued by NWS Midland/Odessa, TX

Skip options and go directly to product.
Home | Oldest Version | Previous Version | Current Version | All | Graphics & Text | Save Text | Print | Product List | Glossary On

Skip product version selection by date and time.   
031
ASUS44 KMAF 290810
RWRMAF
MIDLAND AREA WEATHER ROUNDUP
NATIONAL WEATHER SERVICE MIDLAND TX
300 AM CDT TUE JUL 29 2014

...IN SOUTHWEST TEXAS AND SOUTHEAST NEW MEXICO...

CITY           SKY/WX    TMP DP  RH WIND       PRES   REMARKS
ALPINE         CLEAR     70  56  61 CALM      30.29F
ANDREWS        FAIR      76  63  64 SE10      30.20F
ARTESIA        MOCLDY    79  63  57 E7        30.20F
BIG SPRING     CLEAR     79  62  55 E10       30.19S
CARLSBAD       CLEAR     80  62  54 SE7       30.16S
DRYDEN           N/A     85  60  42 E8        30.10S
FORT STOCKTON  CLEAR     77  54  44 SE6       30.16R
GUAD PASS      CLEAR     69  61  75 NE24      30.30S
HOBBS          PTCLDY    73  63  68 E14       30.22S
MARFA          CLEAR     61  55  82 N3        30.29S
MIDLAND AIRPK  CLEAR     79  64  61 E7        30.19S
MIDLAND INTL   CLEAR     78  64  61 E12       30.17F
ODESSA         CLEAR     78  64  61 SE13      30.18F
PECOS          CLEAR     79  55  42 E9        30.12S
PRESIDIO       FAIR      84  55  36 NE15      30.10S
SEMINOLE       CLEAR     74  62  66 E6        30.23R
SNYDER         PTCLDY    73  60  62 NE10      30.19F
WINK           CLEAR     80  65  59 E12       30.13F
$$
...OTHER STATIONS IN TEXAS...

CITY           SKY/WX    TMP DP  RH WIND       PRES   REMARKS
ABILENE          N/A    N/A N/A N/A MISG      30.16R
AMARILLO       MOCLDY    64  62  93 E7        30.27F
AUSTIN         PTCLDY    75  70  84 CALM      30.07F
BROWNSVILLE    CLEAR     78  76  93 S8        30.03F
CORPUS CHRISTI PTCLDY    75  73  93 CALM      30.04S
DALLAS FTW     MOCLDY    79  61  53 NE6       30.10S
DEL RIO        CLEAR     84  68  58 E9        30.04S
EL PASO        PTCLDY    75  62  64 N9        30.16S
HOUSTON INT    MOCLDY    81  75  82 CALM      30.04F
LUBBOCK        MOCLDY    68  61  78 E10       30.23F
SAN ANGELO     CLEAR     77  66  68 E6        30.14R
SAN ANTONIO    PTCLDY    78  68  71 S6        30.08F
WACO           CLEAR     74  71  91 CALM      30.10S
WICHITA FALLS  NOT AVBL
$$
...OTHER LOCATIONS IN NEW MEXICO...

CITY           SKY/WX    TMP DP  RH WIND       PRES   REMARKS
ALAMAGORDO     CLOUDY    68  68 100 NW8       30.22F
ALBUQUERQUE    LGT RAIN  67  59  75 E16       30.31F
CANNON AFB     MOCLDY    68  64  88 SE9       30.27F
CLOVIS         NOT AVBL
HOLLOMAN AFB   MOCLDY    70  70 100 NE6       30.20F
ROSWELL        LGT RAIN  71  67  87 E8        30.21S
RUIDOSO        TSTM      57  57 100 E8        30.45F
SANTA FE       LGT RAIN  61  58  90 SW5       30.39F
TRUTH OR CONSE CLOUDY    72  59  63 E10       30.25F
TUCUMCARI      MOCLDY    72  62  71 W3        30.25F
$$

USA.gov is the U.S. government's official web portal to all federal, state and local government web resources and services.